Regional Weather Roundup
Issued by NWS

Home | Current Version | Previous Version | Graphics & Text | Print | Product List | Glossary On
Versions: 1 2 3 4 5 6 7 8 9 10 11 12 13 14 15 16 17 18 19 20 21 22 23 24 25 26 27 28 29 30 31 32 33 34 35 36 37 38 39 40 41 42 43 44 45 46 47 48 49 50
000
ASUS43 KLOT 291900
RWRIL

ILLINOIS REGIONAL WEATHER ROUNDUP
NATIONAL WEATHER SERVICE CHICAGO/ROMEOVILLE IL
200 PM CDT FRI MAY 29 2015

NOTE: "FAIR" INDICATES FEW OR NO CLOUDS BELOW 12,000 FEET WITH NO
SIGNIFICANT WEATHER AND/OR OBSTRUCTIONS TO VISIBILITY.

* THESE STATIONS ARE NOT UNDER NWS QUALITY CONTROL. THEY ALSO MAY NOT
  REPORT WEATHER SUCH AS PRECIPITATION OR FOG.

ILZ001-002-007-009-015-016-024-292000-
NORTHWEST ILLINOIS

CITY           SKY/WX    TMP DP  RH WIND       PRES   REMARKS
MOLINE         PTSUNNY   80  67  64 SW14      29.93F HX  82
STERLING*      CLOUDY    73  66  78 SW12G20   29.95S
$$

ILZ003-004-008-010-011-017-018-292000-
NORTH CENTRAL ILLINOIS

CITY           SKY/WX    TMP DP  RH WIND       PRES   REMARKS
ROCKFORD       CLOUDY    78  63  59 S21       29.94F HX  80
$$

ILZ005-006-012>014-019>023-292000-
NORTHEAST ILLINOIS

CITY           SKY/WX    TMP DP  RH WIND       PRES   REMARKS
CHICAGO-OHARE  CLOUDY    79  65  62 S15G24    29.96F HX  81
CHICAGO-MIDWAY PTSUNNY   80  67  64 S14       29.97F HX  82
AURORA         PTSUNNY   80  66  62 S16G28    29.96F HX  82
WAUKEGAN       PTSUNNY   80  64  58 SE12G24   29.95F HX  82
DUPAGE AIRPORT CLOUDY    79  66  64 S17G29    29.95F HX  81
WHEELING       PTSUNNY   79  64  60 S16       29.97F HX  81
NORTHERLY ISL    N/A     67  64  90 SE2         N/A
$$

LMZ740>746-292000-
SOUTHERN LAKE MICHIGAN

STATION/POSITION SKY/WX   TEMP    WIND        PRES    VSBY  WAVE
                          AIR SEA DIR/SP/G                  HT/PER
                          (F)     (DEG/KT/KT) (MB)    (MI)  (FT/S)
SOUTHERN BUOY              49 38  150/ 10/ 12 1016.5          1
HARRISON CRIB              70     150/  8/ 10   N/A
BURNHAM HARBOR             75     170/  9/ 23   N/A
CALUMET HARBOR             73     170/  5/  6   N/A
BURNS HARBOR               68     240/ 11     1016.9R
MICHIGAN CITY              77     200/ 15/ 19   N/A
MICHIGAN CITY 6N           70 56  210/ 12/ 16   N/A           1
ST. JOSEPH                 72 59  220/  8/ 10   N/A           0
$$

ILZ025>027-034>036-040-047-049-050-058-095>099-292000-
WEST-CENTRAL ILLINOIS

CITY           SKY/WX    TMP DP  RH WIND       PRES   REMARKS
QUINCY         CLOUDY    78  67  68 SW12      29.99S HX  80
$$

ILZ028>032-037-038-041>044-048-051>054-059>061-292000-
CENTRAL ILLINOIS

CITY           SKY/WX    TMP DP  RH WIND       PRES   REMARKS
DECATUR        PTSUNNY   81  65  58 S14G22    30.01F HX  83
PEORIA         PTSUNNY   82  64  54 SW16G23   29.96F HX  83
SPRINGFIELD    MOSUNNY   85  67  54 SW14G22   29.98F HX  87
TAYLORVILLE    NOT AVBL
$$

ILZ033-039-045-046-055>057-062-063-292000-
EAST-CENTRAL ILLINOIS

CITY           SKY/WX    TMP DP  RH WIND       PRES   REMARKS
CHAMPAIGN      PTSUNNY   85  63  47 S17G31    30.02F HX  86
$$

ILZ079-100>102-292000-
SOUTHWEST ILLINOIS

CITY           SKY/WX    TMP DP  RH WIND       PRES   REMARKS
BELLEVILLE     PTSUNNY   82  71  70 S12       30.00F HX  86
CAHOKIA*       TSTM      71  68  90 MISG      30.02S VSB 3/4
$$

ILZ064>066-069>071-074>076-080>082-084>086-088>090-092>094-292000-
SOUTH-CENTRAL ILLINOIS

CITY           SKY/WX    TMP DP  RH WIND       PRES   REMARKS
CARBONDALE     MOSUNNY   84  66  54 S12       30.03F HX  86
MARION         PTSUNNY   84  68  58 S14       30.05F HX  87
MT. VERNON     MOSUNNY   84  66  54 S13       30.04F HX  86
$$

ILZ067-068-072-073-078-083-087-091-292000-
SOUTHEAST ILLINOIS

CITY           SKY/WX    TMP DP  RH WIND       PRES   REMARKS
LAWRENCEVILLE  PTSUNNY   84  67  56 S13G22    30.06F HX  86
$$

ABBREVIATIONS USED IN REMARKS
   TC - TEMPERATURE IN CELSIUS
  WCI - WIND CHILL INDEX
   HX - HEAT INDEX
  VSB - VISIBILITY
$$



USA.gov is the U.S. government's official web portal to all federal, state and local government web resources and services.